Data supplied by UK-AIR on 20/6/2020
All Data GMT hour ending 
Status: R =Ratified P=Provisional,P*=As supplied
,,Greenock A8 Roadside,,,,,,,,,,,,,,,,,,,,,,,
Date,time,"PM<sub>10</sub> particulate matter (Hourly measured)",status,unit,"Nitric oxide",status,unit,"Nitrogen dioxide",status,unit,"Nitrogen oxides as nitrogen dioxide",status,unit,"PM<sub>2.5</sub> particulate matter (Hourly measured)",status,unit
 
01-01-2019,01:00,1.161,R,ugm-3 (FIDAS),0.80922,R,ugm-3,2.29364,R,ugm-3,3.53443,R,ugm-3,0.797,R,ugm-3 (Ref.eq)
01-01-2019,02:00,9.100,R,ugm-3 (FIDAS),0.98905,R,ugm-3,3.68117,R,ugm-3,5.19770,R,ugm-3,4.889,R,ugm-3 (Ref.eq)
01-01-2019,03:00,13.945,R,ugm-3 (FIDAS),1.55101,R,ugm-3,5.93813,R,ugm-3,8.31632,R,ugm-3,6.551,R,ugm-3 (Ref.eq)
01-01-2019,04:00,15.543,R,ugm-3 (FIDAS),1.61845,R,ugm-3,9.88894,R,ugm-3,12.37052,R,ugm-3,7.235,R,ugm-3 (Ref.eq)
01-01-2019,05:00,13.413,R,ugm-3 (FIDAS),1.61845,R,ugm-3,6.87427,R,ugm-3,9.35585,R,ugm-3,6.670,R,ugm-3 (Ref.eq)
01-01-2019,06:00,11.528,R,ugm-3 (FIDAS),1.28127,R,ugm-3,8.48279,R,ugm-3,10.44737,R,ugm-3,5.917,R,ugm-3 (Ref.eq)
01-01-2019,07:00,9.134,R,ugm-3 (FIDAS),1.82075,R,ugm-3,14.10073,R,ugm-3,16.89252,R,ugm-3,4.817,R,ugm-3 (Ref.eq)
01-01-2019,08:00,8.296,R,ugm-3 (FIDAS),1.61845,R,ugm-3,8.69347,R,ugm-3,11.17505,R,ugm-3,4.289,R,ugm-3 (Ref.eq)
01-01-2019,09:00,7.105,R,ugm-3 (FIDAS),1.14640,R,ugm-3,10.71668,R,ugm-3,12.47447,R,ugm-3,3.580,R,ugm-3 (Ref.eq)
01-01-2019,10:00,7.305,R,ugm-3 (FIDAS),3.13574,R,ugm-3,19.15332,R,ugm-3,23.96138,R,ugm-3,3.657,R,ugm-3 (Ref.eq)
01-01-2019,11:00,8.053,R,ugm-3 (FIDAS),7.45160,R,ugm-3,23.13906,R,ugm-3,34.56469,R,ugm-3,3.994,R,ugm-3 (Ref.eq)
01-01-2019,12:00,8.717,R,ugm-3 (FIDAS),14.93691,R,ugm-3,23.66842,R,ugm-3,46.57136,R,ugm-3,4.385,R,ugm-3 (Ref.eq)
01-01-2019,13:00,8.872,R,ugm-3 (FIDAS),6.10289,R,ugm-3,13.25234,R,ugm-3,22.60998,R,ugm-3,4.183,R,ugm-3 (Ref.eq)
01-01-2019,14:00,9.546,R,ugm-3 (FIDAS),13.85795,R,ugm-3,20.85279,R,ugm-3,42.10135,R,ugm-3,4.560,R,ugm-3 (Ref.eq)
01-01-2019,15:00,9.537,R,ugm-3 (FIDAS),12.13835,R,ugm-3,20.16294,R,ugm-3,38.77482,R,ugm-3,5.117,R,ugm-3 (Ref.eq)
01-01-2019,16:00,4.758,R,ugm-3 (FIDAS),12.03720,R,ugm-3,26.55528,R,ugm-3,45.01206,R,ugm-3,2.308,R,ugm-3 (Ref.eq)
01-01-2019,17:00,26.545,R,ugm-3 (FIDAS),16.45421,R,ugm-3,34.49211,R,ugm-3,59.72154,R,ugm-3,5.231,R,ugm-3 (Ref.eq)
01-01-2019,18:00,21.453,R,ugm-3 (FIDAS),5.05765,R,ugm-3,16.72621,R,ugm-3,24.48115,R,ugm-3,5.492,R,ugm-3 (Ref.eq)
01-01-2019,19:00,16.000,R,ugm-3 (FIDAS),10.75593,R,ugm-3,25.97299,R,ugm-3,42.46518,R,ugm-3,5.506,R,ugm-3 (Ref.eq)
01-01-2019,20:00,14.220,R,ugm-3 (FIDAS),3.60779,R,ugm-3,27.00572,R,ugm-3,32.53758,R,ugm-3,5.598,R,ugm-3 (Ref.eq)
01-01-2019,21:00,10.085,R,ugm-3 (FIDAS),14.46487,R,ugm-3,43.83160,R,ugm-3,66.01075,R,ugm-3,5.364,R,ugm-3 (Ref.eq)
01-01-2019,22:00,10.391,R,ugm-3 (FIDAS),18.57842,R,ugm-3,48.43940,R,ugm-3,76.92591,R,ugm-3,5.487,R,ugm-3 (Ref.eq)
01-01-2019,23:00,11.102,R,ugm-3 (FIDAS),4.99021,R,ugm-3,29.46001,R,ugm-3,37.11156,R,ugm-3,7.082,R,ugm-3 (Ref.eq)
01-01-2019,24:00,8.929,R,ugm-3 (FIDAS),1.98934,R,ugm-3,23.35402,R,ugm-3,26.40430,R,ugm-3,5.088,R,ugm-3 (Ref.eq)
02-01-2019,01:00,9.484,R,ugm-3 (FIDAS),4.36081,R,ugm-3,20.13363,R,ugm-3,26.82012,R,ugm-3,5.100,R,ugm-3 (Ref.eq)
02-01-2019,02:00,7.694,R,ugm-3 (FIDAS),1.07896,R,ugm-3,14.92627,R,ugm-3,16.58065,R,ugm-3,4.184,R,ugm-3 (Ref.eq)
02-01-2019,03:00,8.100,R,ugm-3 (FIDAS),1.14640,R,ugm-3,10.04099,R,ugm-3,11.79877,R,ugm-3,4.143,R,ugm-3 (Ref.eq)
02-01-2019,04:00,8.021,R,ugm-3 (FIDAS),0.60692,R,ugm-3,12.53144,R,ugm-3,13.46204,R,ugm-3,4.125,R,ugm-3 (Ref.eq)
02-01-2019,05:00,9.224,R,ugm-3 (FIDAS),1.34871,R,ugm-3,11.65393,R,ugm-3,13.72192,R,ugm-3,4.335,R,ugm-3 (Ref.eq)
02-01-2019,06:00,8.678,R,ugm-3 (FIDAS),0.70807,R,ugm-3,12.01250,R,ugm-3,13.09820,R,ugm-3,4.382,R,ugm-3 (Ref.eq)
02-01-2019,07:00,10.266,R,ugm-3 (FIDAS),3.91125,R,ugm-3,23.83762,R,ugm-3,29.83478,R,ugm-3,5.405,R,ugm-3 (Ref.eq)
02-01-2019,08:00,10.059,R,ugm-3 (FIDAS),22.99543,R,ugm-3,42.34245,R,ugm-3,77.60162,R,ugm-3,6.059,R,ugm-3 (Ref.eq)
02-01-2019,09:00,11.323,R,ugm-3 (FIDAS),13.62193,R,ugm-3,46.57944,R,ugm-3,67.46611,R,ugm-3,7.488,R,ugm-3 (Ref.eq)
02-01-2019,10:00,11.978,R,ugm-3 (FIDAS),31.12138,R,ugm-3,52.64874,R,ugm-3,100.36753,R,ugm-3,7.668,R,ugm-3 (Ref.eq)
02-01-2019,11:00,11.130,R,ugm-3 (FIDAS),42.58538,R,ugm-3,52.43117,R,ugm-3,117.72784,R,ugm-3,7.071,R,ugm-3 (Ref.eq)
02-01-2019,12:00,14.493,R,ugm-3 (FIDAS),40.02284,R,ugm-3,48.71973,R,ugm-3,110.08722,R,ugm-3,6.398,R,ugm-3 (Ref.eq)
02-01-2019,13:00,25.813,R,ugm-3 (FIDAS),49.69980,R,ugm-3,54.36085,R,ugm-3,130.56615,R,ugm-3,8.993,R,ugm-3 (Ref.eq)
02-01-2019,14:00,25.838,R,ugm-3 (FIDAS),71.48139,R,ugm-3,64.88341,R,ugm-3,174.48669,R,ugm-3,9.847,R,ugm-3 (Ref.eq)
02-01-2019,15:00,20.023,R,ugm-3 (FIDAS),69.69436,R,ugm-3,64.71278,R,ugm-3,171.57598,R,ugm-3,9.611,R,ugm-3 (Ref.eq)
02-01-2019,16:00,20.880,R,ugm-3 (FIDAS),70.06525,R,ugm-3,68.14632,R,ugm-3,175.57820,R,ugm-3,10.416,R,ugm-3 (Ref.eq)
02-01-2019,17:00,17.640,R,ugm-3 (FIDAS),82.33847,R,ugm-3,77.03137,R,ugm-3,203.28193,R,ugm-3,12.443,R,ugm-3 (Ref.eq)
02-01-2019,18:00,17.038,R,ugm-3 (FIDAS),92.28517,R,ugm-3,73.42281,R,ugm-3,214.92477,R,ugm-3,11.318,R,ugm-3 (Ref.eq)
02-01-2019,19:00,17.800,R,ugm-3 (FIDAS),80.28170,R,ugm-3,69.11395,R,ugm-3,192.21083,R,ugm-3,11.863,R,ugm-3 (Ref.eq)
02-01-2019,20:00,16.715,R,ugm-3 (FIDAS),67.33412,R,ugm-3,67.39618,R,ugm-3,170.64039,R,ugm-3,11.507,R,ugm-3 (Ref.eq)
02-01-2019,21:00,17.303,R,ugm-3 (FIDAS),56.20730,R,ugm-3,64.96570,R,ugm-3,151.14903,R,ugm-3,12.342,R,ugm-3 (Ref.eq)
02-01-2019,22:00,18.530,R,ugm-3 (FIDAS),49.09288,R,ugm-3,67.50604,R,ugm-3,142.78073,R,ugm-3,12.972,R,ugm-3 (Ref.eq)
02-01-2019,23:00,16.338,R,ugm-3 (FIDAS),41.23667,R,ugm-3,61.56802,R,ugm-3,124.79670,R,ugm-3,11.896,R,ugm-3 (Ref.eq)
02-01-2019,24:00,14.790,R,ugm-3 (FIDAS),25.76028,R,ugm-3,60.29724,R,ugm-3,99.79578,R,ugm-3,10.764,R,ugm-3 (Ref.eq)
03-01-2019,01:00,14.588,R,ugm-3 (FIDAS),19.82597,R,ugm-3,61.08007,R,ugm-3,91.47947,R,ugm-3,10.830,R,ugm-3 (Ref.eq)
03-01-2019,02:00,13.238,R,ugm-3 (FIDAS),8.56428,R,ugm-3,55.01009,R,ugm-3,68.14181,R,ugm-3,9.649,R,ugm-3 (Ref.eq)
03-01-2019,03:00,13.740,R,ugm-3 (FIDAS),7.92365,R,ugm-3,56.14832,R,ugm-3,68.29774,R,ugm-3,9.937,R,ugm-3 (Ref.eq)
03-01-2019,04:00,14.453,R,ugm-3 (FIDAS),16.35306,R,ugm-3,57.77696,R,ugm-3,82.85129,R,ugm-3,10.525,R,ugm-3 (Ref.eq)
03-01-2019,05:00,15.395,R,ugm-3 (FIDAS),24.58016,R,ugm-3,62.36662,R,ugm-3,100.05567,R,ugm-3,11.484,R,ugm-3 (Ref.eq)
03-01-2019,06:00,13.763,R,ugm-3 (FIDAS),16.95997,R,ugm-3,57.78195,R,ugm-3,83.78687,R,ugm-3,10.495,R,ugm-3 (Ref.eq)
03-01-2019,07:00,15.385,R,ugm-3 (FIDAS),75.72981,R,ugm-3,71.88327,R,ugm-3,188.00070,R,ugm-3,11.745,R,ugm-3 (Ref.eq)
03-01-2019,08:00,14.995,R,ugm-3 (FIDAS),127.18293,R,ugm-3,83.63743,R,ugm-3,278.64853,R,ugm-3,11.377,R,ugm-3 (Ref.eq)
03-01-2019,09:00,15.938,R,ugm-3 (FIDAS),149.94233,R,ugm-3,89.17824,R,ugm-3,319.08661,R,ugm-3,11.764,R,ugm-3 (Ref.eq)
03-01-2019,10:00,15.593,R,ugm-3 (FIDAS),161.70979,R,ugm-3,84.02535,R,ugm-3,331.97690,R,ugm-3,11.476,R,ugm-3 (Ref.eq)
03-01-2019,11:00,16.390,R,ugm-3 (FIDAS),165.72219,R,ugm-3,84.63010,R,ugm-3,338.73391,R,ugm-3,11.486,R,ugm-3 (Ref.eq)
03-01-2019,12:00,18.893,R,ugm-3 (FIDAS),153.68499,R,ugm-3,86.71413,R,ugm-3,322.36116,R,ugm-3,13.717,R,ugm-3 (Ref.eq)
03-01-2019,13:00,20.163,R,ugm-3 (FIDAS),198.32714,R,ugm-3,86.35361,R,ugm-3,390.45099,R,ugm-3,13.965,R,ugm-3 (Ref.eq)
03-01-2019,14:00,19.960,R,ugm-3 (FIDAS),166.66628,R,ugm-3,90.14742,R,ugm-3,345.69882,R,ugm-3,14.601,R,ugm-3 (Ref.eq)
03-01-2019,15:00,21.790,R,ugm-3 (FIDAS),165.31758,R,ugm-3,85.61433,R,ugm-3,339.09774,R,ugm-3,16.234,R,ugm-3 (Ref.eq)
03-01-2019,16:00,19.368,R,ugm-3 (FIDAS),181.80550,R,ugm-3,84.39854,R,ugm-3,363.16308,R,ugm-3,13.993,R,ugm-3 (Ref.eq)
03-01-2019,17:00,19.303,R,ugm-3 (FIDAS),153.65127,R,ugm-3,91.44376,R,ugm-3,327.03909,R,ugm-3,14.153,R,ugm-3 (Ref.eq)
03-01-2019,18:00,20.535,R,ugm-3 (FIDAS),158.06828,R,ugm-3,86.49029,R,ugm-3,328.85828,R,ugm-3,15.321,R,ugm-3 (Ref.eq)
03-01-2019,19:00,19.840,R,ugm-3 (FIDAS),136.69130,R,ugm-3,85.89866,R,ugm-3,295.48907,R,ugm-3,14.651,R,ugm-3 (Ref.eq)
03-01-2019,20:00,21.235,R,ugm-3 (FIDAS),116.32585,R,ugm-3,78.24648,R,ugm-3,256.61030,R,ugm-3,16.127,R,ugm-3 (Ref.eq)
03-01-2019,21:00,20.868,R,ugm-3 (FIDAS),96.23014,R,ugm-3,70.90838,R,ugm-3,218.45920,R,ugm-3,16.193,R,ugm-3 (Ref.eq)
03-01-2019,22:00,22.025,R,ugm-3 (FIDAS),66.35631,R,ugm-3,64.26952,R,ugm-3,166.01444,R,ugm-3,17.064,R,ugm-3 (Ref.eq)
03-01-2019,23:00,22.013,R,ugm-3 (FIDAS),64.26582,R,ugm-3,62.01731,R,ugm-3,160.55686,R,ugm-3,17.168,R,ugm-3 (Ref.eq)
03-01-2019,24:00,19.885,R,ugm-3 (FIDAS),37.93234,R,ugm-3,54.16012,R,ugm-3,112.32223,R,ugm-3,15.849,R,ugm-3 (Ref.eq)
04-01-2019,01:00,19.688,R,ugm-3 (FIDAS),27.33624,R,ugm-3,49.56529,R,ugm-3,91.48028,R,ugm-3,15.514,R,ugm-3 (Ref.eq)
04-01-2019,02:00,19.690,R,ugm-3 (FIDAS),20.99675,R,ugm-3,45.97948,R,ugm-3,78.17406,R,ugm-3,15.668,R,ugm-3 (Ref.eq)
04-01-2019,03:00,18.848,R,ugm-3 (FIDAS),26.70679,R,ugm-3,47.46377,R,ugm-3,88.41361,R,ugm-3,15.309,R,ugm-3 (Ref.eq)
04-01-2019,04:00,17.900,R,ugm-3 (FIDAS),16.48942,R,ugm-3,41.71548,R,ugm-3,66.99891,R,ugm-3,14.568,R,ugm-3 (Ref.eq)
04-01-2019,05:00,18.615,R,ugm-3 (FIDAS),21.14288,R,ugm-3,43.52040,R,ugm-3,75.93903,R,ugm-3,15.050,R,ugm-3 (Ref.eq)
04-01-2019,06:00,20.248,R,ugm-3 (FIDAS),43.02761,R,ugm-3,43.69763,R,ugm-3,109.67238,R,ugm-3,16.064,R,ugm-3 (Ref.eq)
04-01-2019,07:00,21.505,R,ugm-3 (FIDAS),93.91214,R,ugm-3,56.27244,R,ugm-3,200.26904,R,ugm-3,16.208,R,ugm-3 (Ref.eq)
04-01-2019,08:00,22.373,R,ugm-3 (FIDAS),114.85269,R,ugm-3,60.54824,R,ugm-3,236.65324,R,ugm-3,17.262,R,ugm-3 (Ref.eq)
04-01-2019,09:00,22.160,R,ugm-3 (FIDAS),137.88392,R,ugm-3,64.06131,R,ugm-3,275.48038,R,ugm-3,17.870,R,ugm-3 (Ref.eq)
04-01-2019,10:00,17.553,R,ugm-3 (FIDAS),95.66561,R,ugm-3,57.63805,R,ugm-3,204.32328,R,ugm-3,13.271,R,ugm-3 (Ref.eq)
04-01-2019,11:00,,,,,,,,,,,,,,,
04-01-2019,12:00,,,,,,,,,,,,,,,
04-01-2019,13:00,8.128,R,ugm-3 (FIDAS),46.39968,R,ugm-3,50.79387,R,ugm-3,121.93905,R,ugm-3,6.093,R,ugm-3 (Ref.eq)
04-01-2019,14:00,8.773,R,ugm-3 (FIDAS),66.69954,R,ugm-3,66.65545,R,ugm-3,168.92665,R,ugm-3,5.654,R,ugm-3 (Ref.eq)
04-01-2019,15:00,8.713,R,ugm-3 (FIDAS),35.37301,R,ugm-3,43.27180,R,ugm-3,97.50966,R,ugm-3,5.014,R,ugm-3 (Ref.eq)
04-01-2019,16:00,11.799,R,ugm-3 (FIDAS),41.17297,R,ugm-3,53.61030,R,ugm-3,116.74131,R,ugm-3,4.694,R,ugm-3 (Ref.eq)
04-01-2019,17:00,10.219,R,ugm-3 (FIDAS),32.13582,R,ugm-3,46.00039,R,ugm-3,95.27463,R,ugm-3,4.925,R,ugm-3 (Ref.eq)
04-01-2019,18:00,10.381,R,ugm-3 (FIDAS),27.41493,R,ugm-3,41.95989,R,ugm-3,83.99553,R,ugm-3,5.263,R,ugm-3 (Ref.eq)
04-01-2019,19:00,11.053,R,ugm-3 (FIDAS),24.58239,R,ugm-3,41.78102,R,ugm-3,79.47349,R,ugm-3,5.413,R,ugm-3 (Ref.eq)
04-01-2019,20:00,12.330,R,ugm-3 (FIDAS),27.41493,R,ugm-3,38.16554,R,ugm-3,80.20118,R,ugm-3,5.204,R,ugm-3 (Ref.eq)
04-01-2019,21:00,10.923,R,ugm-3 (FIDAS),13.55572,R,ugm-3,27.65782,R,ugm-3,48.44297,R,ugm-3,5.092,R,ugm-3 (Ref.eq)
04-01-2019,22:00,10.209,R,ugm-3 (FIDAS),16.92779,R,ugm-3,26.64558,R,ugm-3,52.60116,R,ugm-3,5.231,R,ugm-3 (Ref.eq)
04-01-2019,23:00,9.099,R,ugm-3 (FIDAS),9.61040,R,ugm-3,20.45298,R,ugm-3,35.18872,R,ugm-3,5.436,R,ugm-3 (Ref.eq)
04-01-2019,24:00,8.585,R,ugm-3 (FIDAS),10.52086,R,ugm-3,18.12137,R,ugm-3,34.25313,R,ugm-3,5.661,R,ugm-3 (Ref.eq)
05-01-2019,01:00,8.961,R,ugm-3 (FIDAS),8.62215,R,ugm-3,12.71775,R,ugm-3,25.93820,R,ugm-3,6.178,R,ugm-3 (Ref.eq)
05-01-2019,02:00,9.252,R,ugm-3 (FIDAS),5.92491,R,ugm-3,11.35985,R,ugm-3,20.44458,R,ugm-3,6.969,R,ugm-3 (Ref.eq)
05-01-2019,03:00,8.722,R,ugm-3 (FIDAS),6.16191,R,ugm-3,11.46585,R,ugm-3,20.91397,R,ugm-3,6.372,R,ugm-3 (Ref.eq)
05-01-2019,04:00,9.579,R,ugm-3 (FIDAS),4.90921,R,ugm-3,8.53625,R,ugm-3,16.06360,R,ugm-3,6.626,R,ugm-3 (Ref.eq)
05-01-2019,05:00,8.615,R,ugm-3 (FIDAS),4.67221,R,ugm-3,7.43931,R,ugm-3,14.60327,R,ugm-3,6.157,R,ugm-3 (Ref.eq)
05-01-2019,06:00,10.472,R,ugm-3 (FIDAS),9.44600,R,ugm-3,10.23760,R,ugm-3,24.72126,R,ugm-3,6.540,R,ugm-3 (Ref.eq)
05-01-2019,07:00,13.458,R,ugm-3 (FIDAS),19.09513,R,ugm-3,25.63995,R,ugm-3,54.91874,R,ugm-3,7.152,R,ugm-3 (Ref.eq)
05-01-2019,08:00,17.400,R,ugm-3 (FIDAS),38.93511,R,ugm-3,47.58224,R,ugm-3,107.28191,R,ugm-3,8.937,R,ugm-3 (Ref.eq)
05-01-2019,09:00,14.700,R,ugm-3 (FIDAS),45.16473,R,ugm-3,48.35689,R,ugm-3,117.60851,R,ugm-3,9.102,R,ugm-3 (Ref.eq)
05-01-2019,10:00,17.838,R,ugm-3 (FIDAS),41.00037,R,ugm-3,49.16162,R,ugm-3,112.02797,R,ugm-3,10.752,R,ugm-3 (Ref.eq)
05-01-2019,11:00,21.665,R,ugm-3 (FIDAS),75.97425,R,ugm-3,67.40471,R,ugm-3,183.89694,R,ugm-3,11.781,R,ugm-3 (Ref.eq)
05-01-2019,12:00,26.330,R,ugm-3 (FIDAS),60.06164,R,ugm-3,60.98037,R,ugm-3,153.07360,R,ugm-3,13.514,R,ugm-3 (Ref.eq)
05-01-2019,13:00,36.070,R,ugm-3 (FIDAS),40.28938,R,ugm-3,47.80053,R,ugm-3,109.57671,R,ugm-3,16.958,R,ugm-3 (Ref.eq)
05-01-2019,14:00,36.755,R,ugm-3 (FIDAS),45.57101,R,ugm-3,49.19426,R,ugm-3,119.06884,R,ugm-3,14.691,R,ugm-3 (Ref.eq)
05-01-2019,15:00,35.750,R,ugm-3 (FIDAS),66.46054,R,ugm-3,60.55668,R,ugm-3,162.46142,R,ugm-3,12.698,R,ugm-3 (Ref.eq)
05-01-2019,16:00,25.578,R,ugm-3 (FIDAS),71.91146,R,ugm-3,65.60244,R,ugm-3,175.86514,R,ugm-3,11.300,R,ugm-3 (Ref.eq)
05-01-2019,17:00,14.568,R,ugm-3 (FIDAS),40.59409,R,ugm-3,46.60315,R,ugm-3,108.84655,R,ugm-3,10.076,R,ugm-3 (Ref.eq)
05-01-2019,18:00,12.288,R,ugm-3 (FIDAS),40.56023,R,ugm-3,45.71628,R,ugm-3,107.90776,R,ugm-3,8.433,R,ugm-3 (Ref.eq)
05-01-2019,19:00,12.293,R,ugm-3 (FIDAS),54.94929,R,ugm-3,64.49037,R,ugm-3,148.74477,R,ugm-3,8.449,R,ugm-3 (Ref.eq)
05-01-2019,20:00,14.063,R,ugm-3 (FIDAS),41.20351,R,ugm-3,59.38536,R,ugm-3,122.56319,R,ugm-3,8.528,R,ugm-3 (Ref.eq)
05-01-2019,21:00,15.190,R,ugm-3 (FIDAS),33.55191,R,ugm-3,59.01779,R,ugm-3,110.46333,R,ugm-3,10.543,R,ugm-3 (Ref.eq)
05-01-2019,22:00,16.595,R,ugm-3 (FIDAS),27.22072,R,ugm-3,58.76396,R,ugm-3,100.50182,R,ugm-3,11.701,R,ugm-3 (Ref.eq)
05-01-2019,23:00,17.883,R,ugm-3 (FIDAS),42.15149,R,ugm-3,64.45112,R,ugm-3,129.08251,R,ugm-3,13.578,R,ugm-3 (Ref.eq)
05-01-2019,24:00,23.350,R,ugm-3 (FIDAS),33.41648,R,ugm-3,60.94654,R,ugm-3,112.18444,R,ugm-3,14.863,R,ugm-3 (Ref.eq)
06-01-2019,01:00,26.455,R,ugm-3 (FIDAS),28.59906,R,ugm-3,56.62552,R,ugm-3,100.47680,R,ugm-3,16.925,R,ugm-3 (Ref.eq)
06-01-2019,02:00,28.998,R,ugm-3 (FIDAS),15.43262,R,ugm-3,47.97904,R,ugm-3,71.64205,R,ugm-3,17.521,R,ugm-3 (Ref.eq)
06-01-2019,03:00,26.770,R,ugm-3 (FIDAS),15.29664,R,ugm-3,45.98960,R,ugm-3,69.44412,R,ugm-3,16.877,R,ugm-3 (Ref.eq)
06-01-2019,04:00,26.398,R,ugm-3 (FIDAS),13.01914,R,ugm-3,43.04492,R,ugm-3,63.00733,R,ugm-3,17.571,R,ugm-3 (Ref.eq)
06-01-2019,05:00,24.788,R,ugm-3 (FIDAS),12.84918,R,ugm-3,33.57184,R,ugm-3,53.27364,R,ugm-3,16.797,R,ugm-3 (Ref.eq)
06-01-2019,06:00,21.305,R,ugm-3 (FIDAS),7.75030,R,ugm-3,34.69156,R,ugm-3,46.57519,R,ugm-3,16.224,R,ugm-3 (Ref.eq)
06-01-2019,07:00,22.645,R,ugm-3 (FIDAS),28.28180,R,ugm-3,43.97674,R,ugm-3,87.34155,R,ugm-3,16.566,R,ugm-3 (Ref.eq)
06-01-2019,08:00,29.580,R,ugm-3 (FIDAS),39.90725,R,ugm-3,46.40365,R,ugm-3,107.59391,R,ugm-3,18.113,R,ugm-3 (Ref.eq)
06-01-2019,09:00,27.808,R,ugm-3 (FIDAS),59.48695,R,ugm-3,54.37465,R,ugm-3,145.58670,R,ugm-3,17.703,R,ugm-3 (Ref.eq)
06-01-2019,10:00,28.940,R,ugm-3 (FIDAS),56.32564,R,ugm-3,51.37217,R,ugm-3,137.73695,R,ugm-3,18.783,R,ugm-3 (Ref.eq)
06-01-2019,11:00,33.478,R,ugm-3 (FIDAS),74.95356,R,ugm-3,57.50566,R,ugm-3,172.43285,R,ugm-3,21.224,R,ugm-3 (Ref.eq)
06-01-2019,12:00,33.153,R,ugm-3 (FIDAS),90.99804,R,ugm-3,60.64025,R,ugm-3,200.16863,R,ugm-3,20.448,R,ugm-3 (Ref.eq)
06-01-2019,13:00,33.613,R,ugm-3 (FIDAS),68.90288,R,ugm-3,60.55576,R,ugm-3,166.20538,R,ugm-3,21.462,R,ugm-3 (Ref.eq)
06-01-2019,14:00,34.628,R,ugm-3 (FIDAS),75.19150,R,ugm-3,56.56517,R,ugm-3,171.85720,R,ugm-3,22.007,R,ugm-3 (Ref.eq)
06-01-2019,15:00,40.585,R,ugm-3 (FIDAS),121.69330,R,ugm-3,67.37179,R,ugm-3,253.96558,R,ugm-3,24.663,R,ugm-3 (Ref.eq)
06-01-2019,16:00,34.408,R,ugm-3 (FIDAS),126.52024,R,ugm-3,69.12863,R,ugm-3,263.12363,R,ugm-3,20.035,R,ugm-3 (Ref.eq)
06-01-2019,17:00,31.038,R,ugm-3 (FIDAS),145.38610,R,ugm-3,76.72888,R,ugm-3,299.65113,R,ugm-3,19.328,R,ugm-3 (Ref.eq)
06-01-2019,18:00,26.398,R,ugm-3 (FIDAS),88.99248,R,ugm-3,60.05219,R,ugm-3,196.50541,R,ugm-3,17.901,R,ugm-3 (Ref.eq)
06-01-2019,19:00,19.813,R,ugm-3 (FIDAS),67.67915,R,ugm-3,55.15802,R,ugm-3,158.93128,R,ugm-3,14.705,R,ugm-3 (Ref.eq)
06-01-2019,20:00,17.490,R,ugm-3 (FIDAS),40.07721,R,ugm-3,42.89848,R,ugm-3,104.34935,R,ugm-3,13.035,R,ugm-3 (Ref.eq)
06-01-2019,21:00,14.370,R,ugm-3 (FIDAS),31.95299,R,ugm-3,45.30776,R,ugm-3,94.30167,R,ugm-3,10.171,R,ugm-3 (Ref.eq)
06-01-2019,22:00,13.320,R,ugm-3 (FIDAS),18.32198,R,ugm-3,41.29848,R,ugm-3,69.39179,R,ugm-3,9.258,R,ugm-3 (Ref.eq)
06-01-2019,23:00,10.644,R,ugm-3 (FIDAS),15.77254,R,ugm-3,34.06092,R,ugm-3,58.24515,R,ugm-3,7.266,R,ugm-3 (Ref.eq)
06-01-2019,24:00,4.831,R,ugm-3 (FIDAS),6.93448,R,ugm-3,10.40461,R,ugm-3,21.03733,R,ugm-3,2.862,R,ugm-3 (Ref.eq)
07-01-2019,01:00,4.533,R,ugm-3 (FIDAS),5.91560,R,ugm-3,7.31228,R,ugm-3,16.38274,R,ugm-3,3.192,R,ugm-3 (Ref.eq)
07-01-2019,02:00,7.761,R,ugm-3 (FIDAS),2.32074,R,ugm-3,4.56295,R,ugm-3,8.12136,R,ugm-3,5.684,R,ugm-3 (Ref.eq)
07-01-2019,03:00,8.076,R,ugm-3 (FIDAS),1.19450,R,ugm-3,3.31433,R,ugm-3,5.14586,R,ugm-3,5.730,R,ugm-3 (Ref.eq)
07-01-2019,04:00,8.718,R,ugm-3 (FIDAS),1.19450,R,ugm-3,2.42168,R,ugm-3,4.25321,R,ugm-3,5.381,R,ugm-3 (Ref.eq)
07-01-2019,05:00,8.536,R,ugm-3 (FIDAS),2.62789,R,ugm-3,2.90178,R,ugm-3,6.93116,R,ugm-3,5.113,R,ugm-3 (Ref.eq)
07-01-2019,06:00,7.333,R,ugm-3 (FIDAS),3.51523,R,ugm-3,4.63923,R,ugm-3,10.02918,R,ugm-3,3.850,R,ugm-3 (Ref.eq)
07-01-2019,07:00,10.041,R,ugm-3 (FIDAS),14.98240,R,ugm-3,12.78580,R,ugm-3,35.75848,R,ugm-3,4.882,R,ugm-3 (Ref.eq)
07-01-2019,08:00,6.645,R,ugm-3 (FIDAS),21.26204,R,ugm-3,19.17233,R,ugm-3,51.77366,R,ugm-3,3.560,R,ugm-3 (Ref.eq)
07-01-2019,09:00,3.513,R,ugm-3 (FIDAS),23.00259,R,ugm-3,18.02628,R,ugm-3,53.29642,R,ugm-3,2.074,R,ugm-3 (Ref.eq)
07-01-2019,10:00,6.133,R,ugm-3 (FIDAS),17.74680,R,ugm-3,17.47360,R,ugm-3,44.68498,R,ugm-3,3.368,R,ugm-3 (Ref.eq)
07-01-2019,11:00,17.268,R,ugm-3 (FIDAS),18.05396,R,ugm-3,20.94079,R,ugm-3,48.62314,R,ugm-3,9.263,R,ugm-3 (Ref.eq)
07-01-2019,12:00,15.223,R,ugm-3 (FIDAS),14.77763,R,ugm-3,21.50118,R,ugm-3,44.15989,R,ugm-3,8.202,R,ugm-3 (Ref.eq)
07-01-2019,13:00,12.885,R,ugm-3 (FIDAS),10.44331,R,ugm-3,15.07235,R,ugm-3,31.08520,R,ugm-3,6.645,R,ugm-3 (Ref.eq)
07-01-2019,14:00,12.750,R,ugm-3 (FIDAS),10.68221,R,ugm-3,14.02343,R,ugm-3,30.40259,R,ugm-3,6.453,R,ugm-3 (Ref.eq)
07-01-2019,15:00,13.500,R,ugm-3 (FIDAS),9.72661,R,ugm-3,15.90873,R,ugm-3,30.82266,R,ugm-3,6.722,R,ugm-3 (Ref.eq)
07-01-2019,16:00,14.908,R,ugm-3 (FIDAS),11.02349,R,ugm-3,13.60515,R,ugm-3,30.50761,R,ugm-3,8.233,R,ugm-3 (Ref.eq)
07-01-2019,17:00,14.080,R,ugm-3 (FIDAS),13.89029,R,ugm-3,17.92592,R,ugm-3,39.22406,R,ugm-3,8.049,R,ugm-3 (Ref.eq)
07-01-2019,18:00,14.313,R,ugm-3 (FIDAS),17.06423,R,ugm-3,25.76640,R,ugm-3,51.93119,R,ugm-3,8.181,R,ugm-3 (Ref.eq)
07-01-2019,19:00,14.680,R,ugm-3 (FIDAS),7.57652,R,ugm-3,14.05963,R,ugm-3,25.67680,R,ugm-3,7.854,R,ugm-3 (Ref.eq)
07-01-2019,20:00,11.291,R,ugm-3 (FIDAS),5.11927,R,ugm-3,9.63599,R,ugm-3,17.48543,R,ugm-3,6.011,R,ugm-3 (Ref.eq)
07-01-2019,21:00,8.177,R,ugm-3 (FIDAS),3.31046,R,ugm-3,6.47596,R,ugm-3,11.55193,R,ugm-3,4.468,R,ugm-3 (Ref.eq)
07-01-2019,22:00,7.492,R,ugm-3 (FIDAS),1.16037,R,ugm-3,3.73422,R,ugm-3,5.51342,R,ugm-3,4.335,R,ugm-3 (Ref.eq)
07-01-2019,23:00,8.071,R,ugm-3 (FIDAS),0.98973,R,ugm-3,5.04604,R,ugm-3,6.56360,R,ugm-3,4.581,R,ugm-3 (Ref.eq)
07-01-2019,24:00,9.876,R,ugm-3 (FIDAS),1.29688,R,ugm-3,3.83995,R,ugm-3,5.82848,R,ugm-3,5.612,R,ugm-3 (Ref.eq)
08-01-2019,01:00,12.720,R,ugm-3 (FIDAS),1.73606,R,ugm-3,5.62733,R,ugm-3,8.28925,R,ugm-3,7.184,R,ugm-3 (Ref.eq)
08-01-2019,02:00,15.263,R,ugm-3 (FIDAS),0.47970,R,ugm-3,4.26963,R,ugm-3,5.00516,R,ugm-3,8.242,R,ugm-3 (Ref.eq)
08-01-2019,03:00,15.883,R,ugm-3 (FIDAS),0.44544,R,ugm-3,4.58560,R,ugm-3,5.26859,R,ugm-3,8.516,R,ugm-3 (Ref.eq)
08-01-2019,04:00,17.475,R,ugm-3 (FIDAS),1.57616,R,ugm-3,7.27746,R,ugm-3,9.69421,R,ugm-3,9.046,R,ugm-3 (Ref.eq)
08-01-2019,05:00,18.640,R,ugm-3 (FIDAS),2.91247,R,ugm-3,7.17786,R,ugm-3,11.64359,R,ugm-3,9.320,R,ugm-3 (Ref.eq)
08-01-2019,06:00,21.860,R,ugm-3 (FIDAS),15.24765,R,ugm-3,28.25278,R,ugm-3,51.63219,R,ugm-3,9.585,R,ugm-3 (Ref.eq)
08-01-2019,07:00,18.123,R,ugm-3 (FIDAS),13.67149,R,ugm-3,25.92780,R,ugm-3,46.89046,R,ugm-3,8.321,R,ugm-3 (Ref.eq)
08-01-2019,08:00,17.073,R,ugm-3 (FIDAS),28.74782,R,ugm-3,41.85133,R,ugm-3,85.93071,R,ugm-3,7.447,R,ugm-3 (Ref.eq)
08-01-2019,09:00,21.945,R,ugm-3 (FIDAS),57.52991,R,ugm-3,68.74002,R,ugm-3,156.95131,R,ugm-3,8.844,R,ugm-3 (Ref.eq)
08-01-2019,10:00,19.250,R,ugm-3 (FIDAS),46.08560,R,ugm-3,54.67616,R,ugm-3,125.33977,R,ugm-3,8.386,R,ugm-3 (Ref.eq)
08-01-2019,11:00,20.660,R,ugm-3 (FIDAS),48.38132,R,ugm-3,57.74186,R,ugm-3,131.92551,R,ugm-3,8.339,R,ugm-3 (Ref.eq)
08-01-2019,12:00,13.770,R,ugm-3 (FIDAS),39.06140,R,ugm-3,47.21713,R,ugm-3,107.11045,R,ugm-3,5.383,R,ugm-3 (Ref.eq)
08-01-2019,13:00,12.196,R,ugm-3 (FIDAS),17.68043,R,ugm-3,32.89964,R,ugm-3,60.00925,R,ugm-3,4.265,R,ugm-3 (Ref.eq)
08-01-2019,14:00,15.335,R,ugm-3 (FIDAS),25.52697,R,ugm-3,37.62256,R,ugm-3,76.76337,R,ugm-3,5.037,R,ugm-3 (Ref.eq)
08-01-2019,15:00,15.960,R,ugm-3 (FIDAS),31.76309,R,ugm-3,37.64948,R,ugm-3,86.35220,R,ugm-3,5.896,R,ugm-3 (Ref.eq)
08-01-2019,16:00,18.788,R,ugm-3 (FIDAS),31.35192,R,ugm-3,49.02786,R,ugm-3,97.10013,R,ugm-3,7.121,R,ugm-3 (Ref.eq)
08-01-2019,17:00,16.065,R,ugm-3 (FIDAS),24.36198,R,ugm-3,44.30864,R,ugm-3,81.66315,R,ugm-3,7.076,R,ugm-3 (Ref.eq)
08-01-2019,18:00,14.275,R,ugm-3 (FIDAS),33.06514,R,ugm-3,55.09413,R,ugm-3,105.79330,R,ugm-3,6.792,R,ugm-3 (Ref.eq)
08-01-2019,19:00,15.210,R,ugm-3 (FIDAS),18.12586,R,ugm-3,26.05239,R,ugm-3,53.84500,R,ugm-3,6.658,R,ugm-3 (Ref.eq)
08-01-2019,20:00,15.053,R,ugm-3 (FIDAS),10.72475,R,ugm-3,21.80558,R,ugm-3,38.24997,R,ugm-3,6.772,R,ugm-3 (Ref.eq)
08-01-2019,21:00,14.595,R,ugm-3 (FIDAS),7.64096,R,ugm-3,33.22511,R,ugm-3,44.94108,R,ugm-3,6.736,R,ugm-3 (Ref.eq)
08-01-2019,22:00,13.208,R,ugm-3 (FIDAS),6.40744,R,ugm-3,25.31689,R,ugm-3,35.14150,R,ugm-3,6.341,R,ugm-3 (Ref.eq)
08-01-2019,23:00,13.415,R,ugm-3 (FIDAS),3.97467,R,ugm-3,16.19173,R,ugm-3,22.28614,R,ugm-3,6.251,R,ugm-3 (Ref.eq)
08-01-2019,24:00,13.708,R,ugm-3 (FIDAS),6.30465,R,ugm-3,21.25964,R,ugm-3,30.92663,R,ugm-3,6.210,R,ugm-3 (Ref.eq)
09-01-2019,01:00,12.845,R,ugm-3 (FIDAS),4.58671,R,ugm-3,16.64978,R,ugm-3,23.68264,R,ugm-3,5.983,R,ugm-3 (Ref.eq)
09-01-2019,02:00,13.418,R,ugm-3 (FIDAS),3.30243,R,ugm-3,9.89658,R,ugm-3,14.96024,R,ugm-3,6.055,R,ugm-3 (Ref.eq)
09-01-2019,03:00,12.403,R,ugm-3 (FIDAS),3.71523,R,ugm-3,13.12262,R,ugm-3,18.81924,R,ugm-3,5.756,R,ugm-3 (Ref.eq)
09-01-2019,04:00,11.368,R,ugm-3 (FIDAS),3.68083,R,ugm-3,11.27230,R,ugm-3,16.91617,R,ugm-3,5.418,R,ugm-3 (Ref.eq)
09-01-2019,05:00,11.173,R,ugm-3 (FIDAS),5.77925,R,ugm-3,21.95775,R,ugm-3,30.81914,R,ugm-3,5.197,R,ugm-3 (Ref.eq)
09-01-2019,06:00,10.169,R,ugm-3 (FIDAS),11.35210,R,ugm-3,27.05149,R,ugm-3,44.45780,R,ugm-3,5.032,R,ugm-3 (Ref.eq)
09-01-2019,07:00,10.513,R,ugm-3 (FIDAS),61.57656,R,ugm-3,50.79866,R,ugm-3,145.21473,R,ugm-3,5.359,R,ugm-3 (Ref.eq)
09-01-2019,08:00,12.050,R,ugm-3 (FIDAS),84.69357,R,ugm-3,69.74912,R,ugm-3,199.61078,R,ugm-3,6.310,R,ugm-3 (Ref.eq)
09-01-2019,09:00,13.585,R,ugm-3 (FIDAS),177.54001,R,ugm-3,79.73779,R,ugm-3,351.96202,R,ugm-3,7.842,R,ugm-3 (Ref.eq)
09-01-2019,10:00,18.613,R,ugm-3 (FIDAS),178.81282,R,ugm-3,81.38086,R,ugm-3,355.55670,R,ugm-3,12.099,R,ugm-3 (Ref.eq)
09-01-2019,11:00,20.693,R,ugm-3 (FIDAS),202.65224,R,ugm-3,90.65984,R,ugm-3,401.38895,R,ugm-3,14.774,R,ugm-3 (Ref.eq)
09-01-2019,12:00,26.148,R,ugm-3 (FIDAS),225.80365,R,ugm-3,85.82206,R,ugm-3,432.04950,R,ugm-3,14.559,R,ugm-3 (Ref.eq)
09-01-2019,13:00,20.325,R,ugm-3 (FIDAS),201.48263,R,ugm-3,86.05679,R,ugm-3,394.99252,R,ugm-3,12.101,R,ugm-3 (Ref.eq)
09-01-2019,14:00,20.100,R,ugm-3 (FIDAS),162.74788,R,ugm-3,91.00034,R,ugm-3,340.54360,R,ugm-3,11.639,R,ugm-3 (Ref.eq)
09-01-2019,15:00,22.203,R,ugm-3 (FIDAS),180.22324,R,ugm-3,91.79966,R,ugm-3,368.13810,R,ugm-3,12.524,R,ugm-3 (Ref.eq)